FW8932 Weather Reports


time (UTC)temp
C
wind
direction
speed
KPH
gust
KPH
rain 1hr
cm
rain 24hr
cm
rain mn
cm
humidity
%
barometer
mb
20260508051204 7 181 4.8 3.2 0.00 0.00 0.00 72 978.5
20260508050703 7 181 4.8 3.2 0.00 0.00 0.00 72 978.5
20260508040703 7 181 4.8 3.2 0.00 0.00 0.00 72 978.5
20260508023703 7 181 4.8 3.2 0.00 0.00 0.00 72 978.5
20260508021703 7 181 4.8 3.2 0.00 0.00 0.00 72 978.5
20260508021203 7 181 4.8 3.2 0.00 0.00 0.00 72 978.5
20260508020703 7 181 4.8 3.2 0.00 0.00 0.00 72 978.5
20260508013704 7 181 4.8 3.2 0.00 0.00 0.00 72 978.5
20260508013203 7 181 4.8 3.2 0.00 0.00 0.00 72 978.4
20260508011703 8 181 4.8 3.2 0.00 0.00 0.00 69 978.2
20260508010703 8 181 4.8 3.2 0.00 0.00 0.00 67 978.1
20260508010204 9 181 4.8 3.2 0.00 0.00 0.00 67 978.0
20260508004704 10 181 4.8 3.2 0.00 0.00 0.00 63 977.9
20260508004204 10 181 4.8 3.2 0.00 0.00 0.00 61 977.9
20260508003703 10 181 4.8 3.2 0.00 0.00 0.00 61 977.9
20260508003203 10 181 4.8 3.2 0.00 0.00 0.00 62 977.8
20260508001703 11 181 4.8 3.2 0.00 0.00 0.00 56 977.7
20260508001203 11 181 4.8 3.2 0.00 0.00 0.00 56 977.7
20260508000703 11 181 4.8 3.2 0.00 0.00 0.00 56 977.6
20260508000205 11 181 4.8 3.2 0.00 0.00 0.00 56 977.5
20260507234704 12 181 4.8 3.2 0.00 0.00 0.00 51 977.2
20260507234203 12 181 4.8 3.2 0.00 0.00 0.00 50 977.2
20260507233703 12 181 4.8 3.2 0.00 0.00 0.00 50 977.2
20260507233204 12 181 4.8 3.2 0.00 0.00 0.00 48 977.3
20260507231704 12 181 4.8 3.2 0.00 0.00 0.00 48 977.2
20260507231204 12 181 4.8 3.2 0.00 0.00 0.00 50 977.3
20260507230203 13 181 4.8 11.3 0.00 0.00 0.00 48 977.3
20260507224703 13 181 3.2 8.0 0.00 0.00 0.00 49 977.2
20260507224203 14 190 4.8 11.3 0.00 1.78 0.00 46 977.2
20260507223703 14 222 3.2 8.0 0.00 1.78 0.00 48 977.2
20260507223203 13 218 4.8 11.3 0.00 1.78 0.00 46 977.1
20260507220704 13 205 3.2 9.7 0.00 1.78 0.00 49 977.1
20260507220203 13 188 8.0 14.5 0.00 1.78 0.00 49 977.1
20260507214704 13 186 4.8 8.0 0.00 1.78 0.00 50 976.7
20260507214203 13 179 4.8 9.7 0.00 1.78 0.00 51 976.7
20260507213703 14 214 4.8 9.7 0.00 1.78 0.00 50 976.6
20260507213203 14 195 4.8 11.3 0.00 1.78 0.00 49 976.5
20260507211704 13 218 3.2 12.9 0.00 1.78 0.00 46 976.2
20260507211204 14 186 4.8 11.3 0.00 1.78 0.00 47 976.1
20260507210203 14 278 3.2 12.9 0.00 1.78 0.00 48 975.9
20260507204703 15 181 4.8 9.7 0.00 1.78 0.00 46 976.0
20260507204203 15 205 3.2 9.7 0.00 1.78 0.00 45 976.0
20260507203704 15 165 4.8 9.7 0.00 1.78 0.00 42 975.9
20260507203203 15 157 4.8 11.3 0.00 1.78 0.00 44 975.8
20260507201703 15 167 4.8 11.3 0.00 1.78 0.00 45 975.9
20260507201203 15 146 4.8 9.7 0.00 1.78 0.00 45 976.0
20260507200703 15 179 4.8 9.7 0.00 1.78 0.00 45 976.0
20260507200204 15 141 4.8 14.5 0.00 1.78 0.00 44 976.0
20260507194703 15 194 4.8 14.5 0.00 1.78 0.00 47 976.1
20260507194203 15 196 3.2 8.0 0.00 1.78 0.00 45 976.2
20260507193703 15 173 4.8 9.7 0.00 1.78 0.00 46 976.2
20260507193203 15 179 4.8 11.3 0.00 1.78 0.00 43 976.3
20260507191703 15 123 3.2 16.1 0.00 1.78 0.00 43 976.4
20260507191203 15 262 4.8 16.1 0.00 1.78 0.00 41 976.4
20260507190703 15 157 4.8 12.9 0.00 1.78 0.00 45 976.5
20260507190204 15 160 4.8 12.9 0.00 1.78 0.00 45 976.4
20260507184703 15 175 3.2 3.2 0.00 1.78 0.00 45 976.4
20260507184204 15 175 3.2 3.2 0.00 1.78 0.00 47 976.5
20260507183704 15 175 3.2 3.2 0.00 1.78 0.00 43 976.5
20260507183204 15 175 3.2 3.2 0.00 1.78 0.00 46 976.4
20260507181703 14 178 3.2 3.2 0.00 1.78 0.00 47 976.6
20260507181204 14 178 3.2 3.2 0.00 1.78 0.00 45 976.6
20260507180704 15 178 3.2 3.2 0.00 1.78 0.00 44 976.6
20260507174703 15 178 3.2 3.2 0.00 1.78 0.00 44 976.9
20260507173703 14 178 3.2 3.2 0.00 1.78 0.00 46 977.0
20260507171703 14 178 3.2 3.2 0.00 1.78 0.00 46 977.2
20260507171203 14 178 3.2 3.2 0.00 1.78 0.00 45 977.2
20260507170704 14 178 3.2 3.2 0.00 1.78 0.00 43 977.3
20260507170203 13 178 3.2 3.2 0.00 1.78 0.00 47 977.3
20260507164704 14 178 3.2 3.2 0.00 1.78 0.00 46 977.4
20260507164204 14 178 3.2 3.2 0.00 1.78 0.00 48 977.4
20260507163704 13 178 3.2 11.3 0.00 1.78 0.00 47 977.4
20260507163204 13 142 4.8 11.3 0.00 1.78 0.00 48 977.4
20260507161704 13 152 4.8 9.7 0.00 1.78 0.00 49 977.6
20260507161203 13 153 4.8 8.0 0.00 1.78 0.00 51 977.4
20260507160704 13 139 4.8 9.7 0.00 1.78 0.00 48 977.4
20260507160204 13 154 3.2 9.7 0.00 1.78 0.00 48 977.5
20260507154703 13 153 4.8 9.7 0.00 1.78 0.00 51 977.7
20260507154203 13 162 3.2 9.7 0.00 1.78 0.00 46 977.8
20260507153705 13 189 3.2 11.3 0.00 1.78 0.00 48 977.8
20260507153203 13 243 4.8 11.3 0.00 1.78 0.00 50 977.8
20260507151704 12 199 3.2 11.3 0.00 1.78 0.00 54 977.8
20260507151203 12 205 4.8 11.3 0.00 1.78 0.00 49 978.0
20260507150704 12 269 3.2 8.0 0.00 1.78 0.00 51 978.1
20260507150203 12 191 4.8 11.3 0.00 1.78 0.00 52 978.1
20260507143703 12 190 4.8 9.7 0.00 1.78 0.00 54 978.3
20260507143204 12 148 3.2 9.7 0.00 1.78 0.00 56 978.4
20260507134703 10 151 3.2 4.8 0.00 1.78 0.00 72 979.1
20260507134204 10 155 3.2 8.0 0.00 1.78 0.00 70 979.2
20260507133704 10 154 3.2 8.0 0.00 1.78 0.00 71 979.2
20260507133203 9 151 4.8 8.0 0.00 1.78 0.00 73 979.3
20260507131204 8 159 3.2 4.8 0.00 1.78 0.00 78 979.4
20260507124704 6 266 1.6 3.2 0.00 1.78 0.00 88 979.3
20260507124204 6 280 3.2 4.8 0.00 1.78 0.00 90 979.4
20260507123204 5 175 1.6 1.6 0.00 1.78 0.00 97 979.4
20260507121704 4 175 1.6 1.6 0.00 1.78 0.00 97 979.4
20260507121204 4 175 1.6 1.6 0.00 1.78 0.00 97 979.4
20260507120203 3 175 1.6 1.6 0.00 1.78 0.00 97 979.5
20260507114704 2 175 1.6 1.6 0.00 1.78 0.00 97 979.3
20260507114203 2 175 1.6 1.6 0.00 1.78 0.00 97 979.4
20260507113705 2 175 1.6 1.6 0.00 1.78 0.00 97 979.3
20260507113204 2 175 1.6 1.6 0.00 1.78 0.00 97 979.3
20260507111704 2 175 1.6 1.6 0.00 1.78 0.00 97 979.2
20260507111203 2 175 1.6 1.6 0.00 1.78 0.00 97 979.2
20260507110704 1 175 1.6 1.6 0.00 1.78 0.00 97 979.2
20260507110204 1 175 1.6 1.6 0.00 1.78 0.00 97 979.2
20260507104703 1 175 1.6 1.6 0.00 1.78 0.00 97 979.1
20260507104204 2 175 1.6 1.6 0.00 1.78 0.00 97 979.1
20260507103203 1 175 1.6 1.6 0.00 1.78 0.00 97 979.0
20260507101704 1 175 1.6 1.6 0.00 1.78 0.00 97 978.9
20260507101204 2 175 1.6 1.6 0.00 1.78 0.00 97 978.9
20260507100704 2 175 1.6 1.6 0.00 1.78 0.00 97 978.9
20260507094204 2 175 1.6 1.6 0.00 1.78 0.00 97 978.9
20260507093703 2 175 1.6 1.6 0.00 1.78 0.00 97 978.9
20260507093203 2 175 1.6 1.6 0.00 1.78 0.00 97 978.9
20260507091203 2 175 1.6 1.6 0.00 1.78 0.00 97 978.9
20260507090704 2 175 1.6 1.6 0.00 1.78 0.00 97 978.9
20260507090204 2 175 1.6 1.6 0.00 1.78 0.00 97 978.9
20260507084204 2 175 1.6 1.6 0.00 1.78 0.00 97 979.0
20260507083704 2 175 1.6 1.6 0.00 1.78 0.00 97 979.0
20260507083203 2 175 1.6 1.6 0.00 1.78 0.00 97 979.0
20260507081704 3 175 1.6 1.6 0.00 1.78 0.00 97 979.0
20260507081204 3 175 1.6 1.6 0.00 1.78 0.00 97 979.1
20260507080703 3 175 1.6 1.6 0.00 1.78 0.00 97 979.1
20260507080204 3 175 1.6 1.6 0.00 1.78 0.00 97 979.0